sat.trackr.live / text

‹ back to catalog

STARLINK-34298

NORAD 64269 · 2025-120P

PAYLOAD ACTIVE UNKNOWN

§ Identity

Operator
Country
US
Launch date
2025-06-04
Launch site
AFWTR
Launch vehicle
Mass (kg)
RCS (m²)

Purposes: comms

External: N2YO · Heavens-Above · Gunter

§ Orbital elements

Epoch: 2026-09-20T08:33:18.113760Z

Period
93.85 min
Inclination
53.1596°
Eccentricity
0.0001444
Mean motion
15.34409182 rev/d
Perigee alt
461.7 km
Apogee alt
463.7 km
Semi-major
6,840.8 km
B*
4.7752e-4
RAAN
286.5842°
Arg perigee
88.2495°
Mean anomaly
271.8673°
Rev number
7,370

§ Raw data

STARLINK-342981 64269U 25120P   26263.35645965  .00015796  00000+0  47752-3 0  99942 64269  53.1596 286.5842 0001444  88.2495 271.8673 15.34409182 73700

JSON: /api/v1/satellites/64269 · /tle

For live sub-satellite position, see the globe view (requires WebGL).

§ Visibility from observer

Set your observer location to see the next 7 days of passes ≥ 10°. The values pass through the URL so the page stays shareable.

No JS? Fill the form by hand. The geolocation button needs JavaScript.